This demonstration page uses our WeatherBlox Daily Observations layout. Learn more.

Left ArrowRight Arrow

34.16533, -84.80231

Hourly Observations for July 14, 2020

Temp ( °F °C ) Dew Point ( °F °C ) Humidity (%) Winds ( mph kmh ) Pressure ( in mb ) Visibility ( mi km ) Precip ( " mm )
12:53 am 00:53 Clear 74 23.3 68 20 82 82 Calm 29.93 1014 10 16 0.00 0.00
1:53 am 01:53 Clear 73 22.8 68 20 84 84 Calm 29.93 1014 10 16 0.00 0.00
2:53 am 02:53 Clear 70 21.1 67 19.4 90 90 Calm 29.92 1013 10 16 0.00 0.00
3:53 am 03:53 Clear 70 21.1 67 19.4 90 90 Calm 29.91 1013 10 16 0.00 0.00
4:53 am 04:53 Clear 69 20.6 67 19.4 93 93 Calm 29.92 1013 8 13 0.00 0.00
5:53 am 05:53 Clear 69 20.6 66 18.9 90 90 Calm 29.94 1014 8 13 0.00 0.00
6:53 am 06:53 Sunny 67 19.4 65 18.3 93 93 Calm 29.95 1014 7 11 0.00 0.00
7:53 am 07:53 Sunny 72 22.2 68 20 87 87 Calm 29.98 1015 10 16 0.00 0.00
8:53 am 08:53 Sunny 77 25 69 20.6 77 77 Calm 30.01 1016 10 16 0.00 0.00
9:53 am 09:53 Sunny 79 26.1 68 20 69 69 Calm 30.01 1016 10 16 0.00 0.00
10:53 am 10:53 Sunny 84 28.9 68 20 59 59 Calm 30.01 1016 10 16 0.00 0.00
11:53 am 11:53 Sunny 88 31.1 69 20.6 54 54 VRB 5 7 30.00 1016 10 16 0.00 0.00
12:53 pm 12:53 Sunny 90 32.2 66 18.9 45 45 VRB 3 6 29.99 1016 10 16 0.00 0.00
1:53 pm 13:53 Sunny 93 33.9 60 15.6 33 33 Calm 29.98 1015 10 16 0.00 0.00
3:53 pm 15:53 Sunny 94 34.4 61 16.1 33 33 VRB 7 11 29.96 1015 10 16 0.00 0.00
4:53 pm 16:53 Sunny 94 34.4 61 16.1 33 33 VRB 5 7 29.96 1014 10 16 0.00 0.00
5:53 pm 17:53 Sunny 93 33.9 63 17.2 37 37 SSW 6 9 29.95 1014 10 16 0.00 0.00
6:53 pm 18:53 Sunny 92 33.3 64 17.8 40 40 S 5 7 29.95 1014 10 16 0.00 0.00
7:53 pm 19:53 Sunny 88 31.1 68 20 52 52 Calm 29.97 1015 10 16 0.00 0.00
8:53 pm 20:53 Clear 79 26.1 70 21.1 74 74 Calm 29.97 1015 10 16 0.00 0.00
9:53 pm 21:53 Mostly Clear 80 26.7 69 20.6 69 69 Calm 29.99 1016 10 16 0.00 0.00
10:53 pm 22:53 Mostly Clear 76 24.4 69 20.6 79 79 Calm 30.01 1016 10 16 0.00 0.00
11:53 pm 23:53 Mostly Clear 75 23.9 69 20.6 82 82 Calm 30.01 1016 10 16 0.00 0.00

Powered by AerisWeather